This is the latest recevied weather packets stored in our database for station/object K5SVV. If no packets are shown the sender has not sent any weather packets the latest 10 day(s).
| Time | Temp. | Humidity | Pressure | Rain* | Wind** | Luminosity | Snow |
|---|---|---|---|---|---|---|---|
| 1788624128 | 32.78° C | 58% | 1014.2 hPa | 0 mm | - | 730 W/m² | - |
| 1788623823 | 32.22° C | 61% | 1014.4 hPa | 0 mm | - | 682 W/m² | - |
| 1788623522 | 32.22° C | 61% | 1014.2 hPa | 0 mm | - | 698 W/m² | - |
| 1788623215 | 32.22° C | 61% | 1014.2 hPa | 0 mm | - | 676 W/m² | - |
| 1788622911 | 31.67° C | 62% | 1014.4 hPa | 0 mm | - | 645 W/m² | - |
| 1788622601 | 31.67° C | 62% | 1014.2 hPa | 0 mm | - | 617 W/m² | - |
| 1788622297 | 31.67° C | 64% | 1014.5 hPa | 0 mm | - | 601 W/m² | - |
| 1788621992 | 31.67° C | 63% | 1014.5 hPa | 0 mm | - | 549 W/m² | - |
| 1788621686 | 31.11° C | 64% | 1014.4 hPa | 0 mm | - | 511 W/m² | - |
| 1788621381 | 31.11° C | 65% | 1014.4 hPa | 0 mm | - | 479 W/m² | - |
| 1788621077 | 30.56° C | 66% | 1014.1 hPa | 0 mm | - | 478 W/m² | - |
| 1788620772 | 30.56° C | 66% | 1014.4 hPa | 0 mm | - | 494 W/m² | - |
| 1788620469 | 30.56° C | 66% | 1014.4 hPa | 0 mm | - | 475 W/m² | - |
| 1788620163 | 30° C | 68% | 1014.1 hPa | 0 mm | - | 483 W/m² | - |
| 1788619862 | 30° C | 69% | 1013.8 hPa | 0 mm | - | 450 W/m² | - |
| 1788619557 | 30° C | 69% | 1014 hPa | 0 mm | - | 422 W/m² | - |
| 1788619256 | 30° C | 70% | 1014 hPa | 0 mm | - | 370 W/m² | - |
| 1788618956 | 29.44° C | 71% | 1014.1 hPa | 0 mm | - | 378 W/m² | - |
| 1788618651 | 29.44° C | 71% | 1014 hPa | 0 mm | - | 362 W/m² | - |
| 1788618350 | 29.44° C | 71% | 1014.1 hPa | 0 mm | - | 343 W/m² | - |
| 1788618044 | 28.89° C | 73% | 1014.1 hPa | 0 mm | - | 322 W/m² | - |
| 1788617739 | 28.89° C | 74% | 1014 hPa | 0 mm | - | 281 W/m² | - |
| 1788617435 | 28.89° C | 75% | 1014.2 hPa | 0 mm | - | 295 W/m² | - |
| 1788617130 | 28.33° C | 76% | 1014 hPa | 0 mm | - | 269 W/m² | - |
| 1788616829 | 27.78° C | 78% | 1014.2 hPa | 0 mm | - | 253 W/m² | - |
* Rain latest hour (hover to see other rain measurements)
** Current wind speed in m/s (hover to see current wind gust speed)